Location: Maiden
(35.5760°N, 81.2120°W)
Time: 03:29:08
(UTC-04:00)

Resurs 01 Rocket - Pass Details

Date: 02 August 2020
Orbit: 635 x 644 km, 98.0° (Epoch: 11 August)

Event Time Altitude Azimuth Distance (km) Brightness Sun altitude
Exits shadow 22:51:37 20° 228° (SW) 1,457 3.4 -24.9°
Maximum altitude 22:53:22 26° 264° (W) 1,246 3.4 -25.2°
Drops below altitude 10° 22:57:05 10° 321° (NW) 2,026 5.2 -25.7°
Sets 22:59:36 0° 334° (NNW) 2,940 6.2 -26.0°
